Regional Weather Roundup
Issued by NWS Sioux Falls, SD

Home | Current Version | Previous Version | Graphics & Text | Print | Product List | Glossary On
Versions: 1 2 3 4 5 6 7 8 9 10 11 12 13 14 15 16 17 18 19 20 21 22 23 24 25 26 27 28 29 30 31 32 33 34 35 36 37 38 39 40 41 42 43 44 45 46 47 48 49 50
000
ASUS43 KFSD 240502
RWRFSD

WEATHER ROUNDUP FOR SE SOUTH DAKOTA/SW MINNESOTA/NW IOWA
NATIONAL WEATHER SERVICE SIOUX FALLS SD
1200 AM CDT THU APR 24 2014

NOTE: "FAIR" INDICATES FEW OR NO CLOUDS BELOW 12,000 FEET WITH NO
SIGNIFICANT WEATHER AND OR OBSTRUCTIONS TO VISIBILITY.


SDZ038>040-050-052>070-240600-
SOUTHEAST SOUTH DAKOTA

CITY           SKY/WX    TMP DP  RH WIND       PRES   REMARKS
CHAMBERLAIN      N/A     55  41  59 N18G26    29.71R
HURON          CLOUDY    51  40  65 SE8       29.69R
MADISON        LGT RAIN  45  41  87 SE16G25   29.70R
MITCHELL       CLOUDY    51  42  71 SE14      29.65R
SIOUX FALLS    CLOUDY    47  39  74 E17       29.69S
WINNER         CLOUDY    54  38  54 NW10      29.75R
YANKTON        CLOUDY    52  45  76 E13       29.65F
$$

MNZ071-072-080-081-089-090-097-098-240600-
SOUTHWEST MINNESOTA

CITY           SKY/WX    TMP DP  RH WIND       PRES   REMARKS
FAIRMONT       CLOUDY    43  36  75 SE13      29.83S
JACKSON        RAIN      43  37  81 SE20G25   29.78S
LUVERNE        CLOUDY    46  39  76 SE16G22   29.72F
MARSHALL       CLOUDY    45  36  70 SE15      29.77R
MONTEVIDEO     CLOUDY    43  39  87 S22G28    29.79F
PIPESTONE      CLOUDY    45  37  76 SE16      29.71R
REDWOOD FALLS  CLOUDY    44  37  76 E10G20    29.81F
TRACY          CLOUDY    44  38  78 SE12      29.78R
WINDOM         LGT RAIN  43  39  87 SE16G23   29.77S
WORTHINGTON    CLOUDY    43  36  75 SE24G30   29.74F
$$

IAZ001>003-012>014-020>022-031-032-NEZ013-014-SDZ071-240600-
NORTHWEST IOWA

CITY           SKY/WX    TMP DP  RH WIND       PRES   REMARKS
DENISON        CLOUDY    48  43  81 E8G14     29.72F
ESTHERVILLE    CLOUDY    43  41  93 SE14      29.80R
SIOUX CITY     RAIN      54  49  83 SE20G31   29.67S
SPENCER        CLOUDY    46  41  82 SE16      29.77R
STORM LAKE     CLOUDY    46  45  93 SE22G28   29.77R FOG
$$

ABBREVIATIONS USED IN REMARKS
   TC - TEMPERATURE IN CELSIUS
  WCI - WIND CHILL INDEX
   HX - HEAT INDEX
  VSB - VISIBILITY




USA.gov is the U.S. government's official web portal to all federal, state and local government web resources and services.